BMCB-29 Weather Reports


time (UTC)temp
C
wind
direction
speed
KPH
gust
KPH
rain 1hr
cm
rain 24hr
cm
rain mn
cm
humidity
%
barometer
mb
20260506203050 8 0 0.0 0.0 0.00 1.63 1.47 95 1013.5
20260506202049 9 0 0.0 0.0 0.00 1.63 1.47 96 1013.4
20260506201050 9 0 0.0 0.0 0.00 1.65 1.47 97 1013.3
20260506200050 10 0 0.0 0.0 0.00 1.65 1.47 97 1013.2
20260506195047 10 0 0.0 0.0 0.00 1.68 1.47 96 1013.1
20260506194048 10 0 0.0 0.0 0.00 1.70 1.47 97 1013.1
20260506193045 10 0 0.0 0.0 0.00 1.75 1.47 97 1012.9
20260506192047 10 0 0.0 0.0 0.00 1.75 1.47 97 1012.9
20260506185046 10 0 0.0 0.0 0.00 1.91 1.47 94 1012.7
20260506184046 10 0 0.0 0.0 0.00 1.93 1.47 93 1012.6
20260506183048 11 0 0.0 0.0 0.00 1.93 1.47 93 1012.5
20260506182048 11 0 0.0 0.0 0.00 1.96 1.47 91 1012.4
20260506181045 11 0 0.0 0.0 0.00 1.98 1.47 89 1012.2
20260506180048 11 0 0.0 0.0 0.00 2.01 1.47 86 1012.1
20260506175049 11 0 0.0 0.0 0.00 2.03 1.47 86 1012.0
20260506174046 11 0 0.0 0.0 0.00 2.03 1.47 84 1011.9
20260506173045 11 0 0.0 0.0 0.00 2.06 1.47 83 1011.7
20260506172047 11 0 0.0 0.0 0.00 2.08 1.47 87 1011.6
20260506171047 11 0 0.0 0.0 0.00 2.11 1.47 90 1011.6
20260506170044 11 0 0.0 0.0 0.00 2.11 1.47 92 1011.6
20260506165044 11 0 0.0 0.0 0.00 2.13 1.47 92 1011.6
20260506163047 11 0 0.0 0.0 0.00 2.18 1.47 90 1011.5
20260506162047 11 0 0.0 0.0 0.00 2.18 1.47 90 1011.5
20260506161045 11 0 0.0 0.0 0.00 2.21 1.47 89 1011.6
20260506160047 11 0 0.0 0.0 0.00 2.21 1.47 90 1011.7
20260506155044 11 0 0.0 0.0 0.00 2.21 1.47 90 1011.7
20260506154050 11 0 0.0 0.0 0.00 2.21 1.47 91 1011.7
20260506153055 11 0 0.0 0.0 0.00 2.24 1.47 90 1011.6
20260506152046 11 0 0.0 0.0 0.00 2.24 1.47 89 1011.6
20260506150044 11 0 0.0 0.0 0.00 2.26 1.47 87 1011.6
20260506145046 11 0 0.0 0.0 0.00 2.26 1.47 87 1011.6
20260506144046 11 0 0.0 0.0 0.00 2.26 1.47 88 1011.7
20260506143044 11 0 0.0 0.0 0.00 2.26 1.47 88 1011.7
20260506142044 11 0 0.0 0.0 0.00 2.26 1.47 88 1011.7
20260506140050 11 0 0.0 0.0 0.00 2.26 1.47 86 1011.6
20260506135046 11 0 0.0 0.0 0.00 2.26 1.47 87 1011.6
20260506134046 11 0 0.0 0.0 0.00 2.26 1.47 87 1011.6
20260506132046 11 0 0.0 0.0 0.00 2.26 1.47 85 1011.6
20260506131042 11 0 0.0 0.0 0.00 2.26 1.47 87 1011.4
20260506130046 11 0 0.0 0.0 0.00 2.26 1.47 87 1011.5
20260506125051 11 0 0.0 0.0 0.00 2.26 1.47 86 1011.4
20260506124045 11 0 0.0 0.0 0.00 2.26 1.47 88 1011.2
20260506122044 11 0 0.0 0.0 0.00 2.26 1.47 90 1011.1
20260506121043 10 0 0.0 0.0 0.00 2.26 1.47 90 1011.1
20260506120043 10 0 0.0 0.0 0.00 2.26 1.47 91 1011.0
20260506114044 10 0 0.0 0.0 0.00 2.26 1.47 94 1010.9
20260506113046 10 0 0.0 0.0 0.00 2.26 1.47 95 1010.8
20260506112044 10 0 0.0 0.0 0.03 2.26 1.47 95 1010.8
20260506111044 10 0 0.0 0.0 0.03 2.26 1.47 97 1010.8
20260506105043 10 0 0.0 0.0 0.03 2.26 1.47 96 1010.9
20260506104045 10 0 0.0 0.0 0.05 2.26 1.47 96 1010.9
20260506103044 10 0 0.0 0.0 0.05 2.26 1.47 97 1010.8
20260506102044 10 0 0.0 0.0 0.05 2.26 1.47 97 1010.8
20260506101044 9 0 0.0 0.0 0.05 2.24 1.45 97 1010.8
20260506100044 9 0 0.0 0.0 0.05 2.24 1.45 98 1010.8
20260506095045 9 0 0.0 0.0 0.08 2.24 1.45 98 1010.8
20260506094040 9 0 0.0 0.0 0.10 2.24 1.45 98 1010.7
20260506093045 9 0 0.0 0.0 0.10 2.21 1.45 98 1010.6
20260506092044 9 0 0.0 0.0 0.10 2.21 1.45 98 1010.6
20260506090045 8 0 0.0 0.0 0.10 2.21 1.42 98 1010.4
20260506083039 8 0 0.0 0.0 0.05 2.13 1.37 99 1010.2
20260506082044 8 0 0.0 0.0 0.05 2.11 1.35 98 1010.2
20260506081044 8 0 0.0 0.0 0.08 2.11 1.35 98 1010.1
20260506073041 8 0 0.0 0.0 0.08 2.11 1.32 99 1009.9
20260506072044 8 0 0.0 0.0 0.10 2.08 1.30 99 1009.8
20260506071044 8 0 0.0 0.0 0.10 2.06 1.27 99 1009.8
20260506062045 8 0 0.0 0.0 0.15 2.03 1.24 99 1009.3
20260506051044 8 0 0.0 0.0 0.15 1.85 1.09 10 1009.2
20260506045041 8 0 0.0 0.0 0.13 1.80 1.02 99 1009.2
20260506044043 8 0 0.0 0.0 0.13 1.78 0.99 99 1009.2
20260506043045 8 0 0.0 0.0 0.10 1.75 0.97 99 1009.2
20260506041042 8 0 0.0 0.0 0.13 1.73 0.94 99 1009.1
20260506040044 8 0 0.0 0.0 0.15 1.70 0.91 99 1009.1
20260506035046 8 0 0.0 0.0 0.15 1.68 0.89 99 1009.2
20260506034043 8 0 0.0 0.0 0.18 1.68 0.89 10 1009.2
20260506033044 8 0 0.0 0.0 0.20 1.65 0.89 10 1009.2
20260506032043 8 0 0.0 0.0 0.20 1.65 0.86 99 1009.2
20260506031042 8 0 0.0 0.0 0.20 1.63 0.84 99 1009.2
20260506030043 8 0 0.0 0.0 0.20 1.60 0.81 10 1009.2
20260506025043 8 0 0.0 0.0 0.18 1.55 0.79 99 1009.2
20260506024044 8 0 0.0 0.0 0.18 1.55 0.76 10 1009.3
20260506023045 8 0 0.0 0.0 0.18 1.50 0.71 10 1009.3
20260506022042 8 0 0.0 0.0 0.15 1.45 0.69 10 1009.3
20260506021044 9 0 0.0 0.0 0.18 1.45 0.66 10 1009.3
20260506020044 9 0 0.0 0.0 0.20 1.42 0.64 10 1009.3
20260506015043 9 0 0.0 0.0 0.23 1.40 0.61 10 1009.4
20260506012043 9 0 0.0 0.0 0.20 1.32 0.53 10 1009.4
20260506011044 9 0 0.0 0.0 0.20 1.30 0.51 10 1009.4
20260506010040 9 0 0.0 0.0 0.18 1.27 0.48 10 1009.4
20260506005043 9 0 0.0 0.0 0.15 1.22 0.43 10 1009.5
20260506004043 9 0 0.0 0.0 0.15 1.17 0.41 10 1009.5
20260506003042 9 0 0.0 0.0 0.15 1.17 0.38 10 1009.6
20260506002044 9 0 0.0 0.0 0.15 1.14 0.36 10 1009.7
20260506000044 9 0 0.0 0.0 0.15 1.09 0.33 10 1009.9
20260505235045 9 0 0.0 0.0 0.15 1.09 0.30 10 1010.0
20260505234044 9 0 0.0 0.0 0.15 1.07 0.28 10 1010.0
20260505233044 10 0 0.0 0.0 0.13 1.02 0.23 10 1010.0
20260505231045 10 0 0.0 0.0 0.18 0.99 0.23 10 1010.0
20260505230043 10 0 0.0 0.0 0.20 0.99 0.20 10 1010.0
20260505225047 10 0 0.0 0.0 0.20 0.97 0.18 10 1010.1
20260505224046 10 0 0.0 0.0 0.20 0.94 0.15 10 1010.1
20260505223045 10 0 0.0 0.0 0.20 0.91 0.15 10 1010.1
20260505222045 10 0 0.0 0.0 0.18 0.89 0.13 10 1010.2
20260505221048 10 0 0.0 0.0 0.15 0.86 0.08 10 1010.2
20260505215048 10 0 0.0 0.0 0.10 0.79 0.79 10 1010.3
20260505214047 10 0 0.0 0.0 0.10 0.76 0.76 10 1010.3
20260505213047 10 0 0.0 0.0 0.10 0.74 0.74 10 1010.4
20260505212048 10 0 0.0 0.0 0.08 0.71 0.71 10 1010.4
20260505211046 10 0 0.0 0.0 0.10 0.71 0.71 10 1010.5
20260505210048 10 0 0.0 0.0 0.10 0.71 0.71 10 1010.5
20260505204046 10 0 0.0 0.0 0.13 0.69 0.69 10 1010.5